User: anonymous   Login
Location: Chevoux
(46.3801°N, 4.9476°E)
Time: 13:08:25
(UTC+00:00)
Language:

Explorer 11/Cluster Stage 4 - Orbit

View from above orbital plane
View from above orbital plane
View from above satellite
View from above satellite

Ground track
Ground track

The orbit data is extracted from the following two-line orbital elements,

1 00107U 61013A   21127.76274586  .00000351  00000-0  25208-4 0  9997
2 00107  28.7872 149.5562 0545782 185.9384 173.4498 14.09186488 12014
Epoch (UTC): 07 May 2021 18:18:21
Eccentricity: 0.0545782
inclination: 28.7872°
perigee height: 467 km
apogee height: 1257 km
right ascension of ascending node: 149.5562°
argument of perigee: 185.9384°
revolutions per day: 14.09186488
mean anomaly at epoch: 173.4498°
orbit number at epoch: 1201

The dashed part of the orbit path shows where the satellite is in the earth's shadow,  

DLR